When you browse on this site, cookies collect data to enhance your experience and personalize the content and advertising you see.
Visit our Privacy Policy to learn more. By continuing to use the site, you agree to this use of cookies and data.
  • In Lithuania
  • List of Countries
  • For 7 days
  • Water Temperature
  • Weather Map
  • Weather Widgets
  • user-avatar
    Login

    Hourly Weather Bolshoe Anankino

    Today, 19 August, Monday

    Time Temperature Precipitation Wind Pressure Humidity
    00:00 +15°C° 0 mm 2 mps 737 mmHg 99%
    01:00 +15°C° 0 mm 2 mps 737 mmHg 98%
    02:00 +15°C° 0 mm 2 mps 738 mmHg 99%
    03:00 +15°C° 0 mm 2 mps 738 mmHg 98%
    04:00 +14°C° 0 mm 2 mps 738 mmHg 98%
    05:00 +14°C° 0 mm 2 mps 739 mmHg 98%
    06:00 +15°C° 0 mm 2 mps 739 mmHg 97%
    07:00 +15°C° 0 mm 2 mps 739 mmHg 96%
    08:00 +15°C° 0 mm 2 mps 740 mmHg 94%
    09:00 +17°C° 0 mm 2 mps 740 mmHg 85%
    10:00 +19°C° 0 mm 2 mps 740 mmHg 76%
    11:00 +21°C° 0 mm 2 mps 740 mmHg 67%
    12:00 +23°C° 0 mm 2 mps 740 mmHg 64%
    13:00 +24°C° 0 mm 2 mps 741 mmHg 60%
    14:00 +25°C° 0 mm 2 mps 741 mmHg 57%
    15:00 +25°C° 0 mm 2 mps 741 mmHg 61%
    16:00 +25°C° 0 mm 2 mps 741 mmHg 66%
    17:00 +24°C° 0 mm 1 mps 741 mmHg 71%
    18:00 +23°C° 0 mm 2 mps 741 mmHg 78%
    19:00 +20°C° 0 mm 2 mps 741 mmHg 84%
    20:00 +18°C° 0 mm 2 mps 741 mmHg 91%
    21:00 +18°C° 0 mm 2 mps 741 mmHg 93%
    22:00 +17°C° 0 mm 2 mps 741 mmHg 94%
    23:00 +17°C° 0 mm 2 mps 741 mmHg 96%

    Tomorrow, 20 August, Tuesday

    Time Temperature Precipitation Wind Pressure Humidity
    00:00 +17°C° 0 mm 2 mps 741 mmHg 96%
    01:00 +17°C° 0 mm 2 mps 742 mmHg 97%
    02:00 +17°C° 0 mm 2 mps 742 mmHg 97%
    03:00 +16°C° 0 mm 2 mps 742 mmHg 98%
    04:00 +16°C° 0 mm 2 mps 742 mmHg 98%
    05:00 +16°C° 0 mm 2 mps 743 mmHg 98%
    06:00 +18°C° 0.3 mm 2 mps 743 mmHg 97%
    07:00 +19°C° 0.3 mm 2 mps 743 mmHg 95%
    08:00 +20°C° 0.3 mm 2 mps 743 mmHg 93%
    09:00 +22°C° 0 mm 1 mps 743 mmHg 90%
    10:00 +23°C° 0 mm 1 mps 744 mmHg 87%
    11:00 +24°C° 0 mm 1 mps 744 mmHg 84%
    12:00 +24°C° 0.1 mm 1 mps 744 mmHg 84%
    13:00 +24°C° 0.1 mm 1 mps 744 mmHg 84%
    14:00 +24°C° 0.1 mm 1 mps 744 mmHg 84%
    15:00 +24°C° 0.4 mm 1 mps 744 mmHg 86%
    16:00 +24°C° 0.4 mm 1 mps 744 mmHg 87%
    17:00 +24°C° 0.4 mm 1 mps 744 mmHg 89%
    18:00 +22°C° 0.2 mm 1 mps 745 mmHg 91%
    19:00 +21°C° 0.2 mm 1 mps 745 mmHg 94%
    20:00 +19°C° 0.2 mm 1 mps 745 mmHg 97%
    21:00 +19°C° 0 mm 1 mps 745 mmHg 97%
    22:00 +18°C° 0 mm 1 mps 745 mmHg 97%
    23:00 +18°C° 0 mm 1 mps 745 mmHg 97%

    Day after tomorrow, 21 August, Wednesday

    Time Temperature Precipitation Wind Pressure Humidity
    00:00 +18°C° 0 mm 1 mps 745 mmHg 97%
    01:00 +16°C° 0 mm 1 mps 746 mmHg 98%
    02:00 +16°C° 0 mm 1 mps 746 mmHg 98%
    03:00 +16°C° 0 mm 1 mps 746 mmHg 97%
    04:00 +15°C° 0 mm 1 mps 746 mmHg 97%
    05:00 +15°C° 0 mm 1 mps 746 mmHg 97%
    06:00 +16°C° 0 mm 1 mps 746 mmHg 95%
    07:00 +18°C° 0 mm 1 mps 746 mmHg 94%
    08:00 +18°C° 0 mm 2 mps 746 mmHg 92%
    09:00 +20°C° 0.1 mm 2 mps 746 mmHg 88%
    10:00 +21°C° 0.1 mm 2 mps 746 mmHg 84%
    11:00 +23°C° 0.1 mm 2 mps 746 mmHg 80%
    12:00 +24°C° 0.4 mm 3 mps 745 mmHg 82%
    13:00 +24°C° 0.4 mm 3 mps 745 mmHg 83%
    14:00 +24°C° 0.4 mm 3 mps 745 mmHg 84%
    15:00 +24°C° 1.6 mm 3 mps 744 mmHg 87%
    16:00 +23°C° 1.6 mm 2 mps 744 mmHg 89%
    17:00 +23°C° 1.6 mm 2 mps 743 mmHg 91%
    18:00 +21°C° 0.4 mm 2 mps 743 mmHg 92%
    19:00 +21°C° 0.4 mm 2 mps 742 mmHg 93%
    20:00 +20°C° 0.4 mm 2 mps 742 mmHg 95%
    21:00 +20°C° 0.1 mm 2 mps 742 mmHg 95%
    22:00 +19°C° 0.1 mm 3 mps 742 mmHg 95%
    23:00 +19°C° 0.1 mm 3 mps 742 mmHg 95%

    22 August, Thursday

    Time Temperature Precipitation Wind Pressure Humidity
    00:00 +19°C° 0.4 mm 3 mps 742 mmHg 95%
    01:00 +19°C° 0.4 mm 3 mps 742 mmHg 96%
    02:00 +18°C° 0.4 mm 3 mps 743 mmHg 96%
    03:00 +17°C° 0.4 mm 3 mps 743 mmHg 96%
    04:00 +16°C° 0.4 mm 3 mps 743 mmHg 97%
    05:00 +16°C° 0.4 mm 3 mps 743 mmHg 97%
    06:00 +14°C° 0 mm 3 mps 744 mmHg 95%
    07:00 +14°C° 0 mm 4 mps 744 mmHg 94%
    08:00 +14°C° 0 mm 4 mps 745 mmHg 93%
    09:00 +16°C° 0 mm 3 mps 745 mmHg 87%
    10:00 +17°C° 0 mm 3 mps 745 mmHg 82%
    11:00 +17°C° 0 mm 3 mps 745 mmHg 76%
    12:00 +19°C° 0 mm 2 mps 746 mmHg 71%
    13:00 +20°C° 0 mm 2 mps 746 mmHg 65%
    14:00 +21°C° 0 mm 2 mps 746 mmHg 59%
    15:00 +21°C° 0 mm 2 mps 746 mmHg 63%
    16:00 +21°C° 0 mm 2 mps 746 mmHg 66%
    17:00 +22°C° 0 mm 1 mps 746 mmHg 69%
    18:00 +19°C° 0 mm 2 mps 746 mmHg 74%
    19:00 +17°C° 0 mm 2 mps 746 mmHg 79%
    20:00 +15°C° 0 mm 2 mps 746 mmHg 85%
    21:00 +14°C° 0 mm 1 mps 746 mmHg 85%
    22:00 +13°C° 0 mm 1 mps 746 mmHg 85%
    23:00 +12°C° 0 mm 1 mps 746 mmHg 85%

    23 August, Friday

    Time Temperature Precipitation Wind Pressure Humidity
    00:00 +12°C° 0 mm 1 mps 746 mmHg 86%
    01:00 +11°C° 0 mm 1 mps 746 mmHg 87%
    02:00 +11°C° 0 mm 1 mps 746 mmHg 89%
    03:00 +11°C° 0 mm 1 mps 746 mmHg 90%
    04:00 +11°C° 0 mm 1 mps 746 mmHg 91%
    05:00 +11°C° 0 mm 1 mps 746 mmHg 92%
    06:00 +13°C° 0 mm 1 mps 746 mmHg 85%
    07:00 +15°C° 0 mm 1 mps 746 mmHg 78%
    08:00 +18°C° 0 mm 1 mps 747 mmHg 70%
    09:00 +20°C° 0 mm 1 mps 747 mmHg 66%
    10:00 +21°C° 0 mm 1 mps 746 mmHg 61%
    11:00 +22°C° 0 mm 1 mps 746 mmHg 56%
    12:00 +22°C° 0.2 mm 1 mps 746 mmHg 58%
    13:00 +21°C° 0.2 mm 2 mps 746 mmHg 60%
    14:00 +20°C° 0.2 mm 2 mps 746 mmHg 62%
    15:00 +19°C° 0.4 mm 2 mps 746 mmHg 70%
    16:00 +19°C° 0.4 mm 2 mps 745 mmHg 78%
    17:00 +18°C° 0.4 mm 2 mps 745 mmHg 85%
    18:00 +16°C° 0.1 mm 2 mps 745 mmHg 87%
    19:00 +15°C° 0.1 mm 2 mps 745 mmHg 88%
    20:00 +13°C° 0.1 mm 2 mps 746 mmHg 90%
    21:00 +12°C° 0 mm 2 mps 746 mmHg 91%
    22:00 +12°C° 0 mm 2 mps 746 mmHg 92%
    23:00 +10°C° 0 mm 2 mps 746 mmHg 93%

    24 August, Saturday

    Time Temperature Precipitation Wind Pressure Humidity
    00:00 +10°C° 0 mm 2 mps 746 mmHg 94%
    01:00 +9°C° 0 mm 2 mps 746 mmHg 94%
    02:00 +9°C° 0 mm 2 mps 746 mmHg 95%
    03:00 +9°C° 0 mm 2 mps 746 mmHg 96%
    04:00 +9°C° 0 mm 2 mps 746 mmHg 96%
    05:00 +8°C° 0 mm 2 mps 746 mmHg 97%
    06:00 +10°C° 0 mm 2 mps 747 mmHg 93%
    07:00 +13°C° 0 mm 2 mps 747 mmHg 89%
    08:00 +14°C° 0 mm 2 mps 747 mmHg 86%
    09:00 +16°C° 0 mm 2 mps 747 mmHg 76%
    10:00 +17°C° 0 mm 2 mps 748 mmHg 67%
    11:00 +19°C° 0 mm 2 mps 748 mmHg 57%
    12:00 +19°C° 0 mm 2 mps 748 mmHg 55%
    13:00 +20°C° 0 mm 2 mps 747 mmHg 53%
    14:00 +20°C° 0 mm 2 mps 747 mmHg 51%
    15:00 +20°C° 0 mm 2 mps 747 mmHg 57%
    16:00 +20°C° 0 mm 2 mps 747 mmHg 62%
    17:00 +20°C° 0 mm 1 mps 747 mmHg 67%
    18:00 +18°C° 0 mm 1 mps 747 mmHg 73%
    19:00 +15°C° 0 mm 1 mps 747 mmHg 79%
    20:00 +13°C° 0 mm 1 mps 747 mmHg 85%
    21:00 +13°C° 0 mm 1 mps 747 mmHg 88%
    22:00 +12°C° 0 mm 1 mps 748 mmHg 90%
    23:00 +12°C° 0 mm 1 mps 748 mmHg 92%
    Show more